Year,Month,Day,Hour,Minute,Value (Times are PST for temperature in C)
2012,05,17,00,00,10.20
2012,05,17,00,01,10.20
2012,05,17,00,02,10.10
2012,05,17,00,03,10.10
2012,05,17,00,04,10.10
2012,05,17,00,05,10.10
2012,05,17,00,06,10.10
2012,05,17,00,07,10.10
2012,05,17,00,08,10.10
2012,05,17,00,09,10.10
2012,05,17,00,10,10.10
2012,05,17,00,11,10.10
2012,05,17,00,12,10.10
2012,05,17,00,13,10.10
2012,05,17,00,14,10.10
2012,05,17,00,15,10.10
2012,05,17,00,16,10.10
2012,05,17,00,17,10.10
2012,05,17,00,18,10.10
2012,05,17,00,19,10.10
2012,05,17,00,20,10.10
2012,05,17,00,21,10.10
2012,05,17,00,22,10.00
2012,05,17,00,23,9.90
2012,05,17,00,24,9.90
2012,05,17,00,25,9.90
2012,05,17,00,26,9.90
2012,05,17,00,27,9.90
2012,05,17,00,28,9.90
2012,05,17,00,29,9.90
2012,05,17,00,30,9.90
2012,05,17,00,31,9.90
2012,05,17,00,32,9.80
2012,05,17,00,33,9.80
2012,05,17,00,34,9.80
2012,05,17,00,35,9.70
2012,05,17,00,36,9.70
2012,05,17,00,37,9.70
2012,05,17,00,38,9.70
2012,05,17,00,39,9.70
2012,05,17,00,40,9.60
2012,05,17,00,41,9.60
2012,05,17,00,42,9.60
2012,05,17,00,43,9.50
2012,05,17,00,44,9.50
2012,05,17,00,45,9.50
2012,05,17,00,46,9.50
2012,05,17,00,47,9.50
2012,05,17,00,48,9.50
2012,05,17,00,49,9.50
2012,05,17,00,50,9.50
2012,05,17,00,51,9.50
2012,05,17,00,52,9.40
2012,05,17,00,53,9.40
2012,05,17,00,54,9.40
2012,05,17,00,55,9.30
2012,05,17,00,56,9.30
2012,05,17,00,57,9.30
2012,05,17,00,58,9.20
2012,05,17,00,59,9.20
2012,05,17,01,00,9.20
2012,05,17,01,01,9.20
2012,05,17,01,02,9.10
2012,05,17,01,03,9.10
2012,05,17,01,04,9.10
2012,05,17,01,05,9.10
2012,05,17,01,06,9.00
2012,05,17,01,07,9.00
2012,05,17,01,08,9.00
2012,05,17,01,09,9.00
2012,05,17,01,10,9.00
2012,05,17,01,11,9.00
2012,05,17,01,12,8.90
2012,05,17,01,13,8.90
2012,05,17,01,14,8.90
2012,05,17,01,15,8.90
2012,05,17,01,16,8.90
2012,05,17,01,17,8.80
2012,05,17,01,18,8.80
2012,05,17,01,19,8.80
2012,05,17,01,20,8.80
2012,05,17,01,21,8.80
2012,05,17,01,22,8.70
2012,05,17,01,23,8.70
2012,05,17,01,24,8.70
2012,05,17,01,25,8.70
2012,05,17,01,26,8.70
2012,05,17,01,27,8.70
2012,05,17,01,28,8.70
2012,05,17,01,29,8.70
2012,05,17,01,30,8.70
2012,05,17,01,31,8.60
2012,05,17,01,32,8.60
2012,05,17,01,33,8.60
2012,05,17,01,34,8.60
2012,05,17,01,35,8.60
2012,05,17,01,36,8.60
2012,05,17,01,37,8.60
2012,05,17,01,38,8.60
2012,05,17,01,39,8.60
2012,05,17,01,40,8.60
2012,05,17,01,41,8.60
2012,05,17,01,42,8.60
2012,05,17,01,43,8.60
2012,05,17,01,44,8.60
2012,05,17,01,45,8.60
2012,05,17,01,46,8.60
2012,05,17,01,47,8.60
2012,05,17,01,48,8.50
2012,05,17,01,49,8.50
2012,05,17,01,50,8.50
2012,05,17,01,51,8.50
2012,05,17,01,52,8.50
2012,05,17,01,53,8.50
2012,05,17,01,54,8.40
2012,05,17,01,55,8.40
2012,05,17,01,56,8.40
2012,05,17,01,57,8.40
2012,05,17,01,58,8.30
2012,05,17,01,59,8.30
2012,05,17,02,00,8.30
2012,05,17,02,01,8.30
2012,05,17,02,02,8.30
2012,05,17,02,03,8.30
2012,05,17,02,04,8.30
2012,05,17,02,05,8.30
2012,05,17,02,06,8.20
2012,05,17,02,07,8.20
2012,05,17,02,08,8.20
2012,05,17,02,09,8.20
2012,05,17,02,10,8.20
2012,05,17,02,11,8.20
2012,05,17,02,12,8.20
2012,05,17,02,13,8.20
2012,05,17,02,14,8.20
2012,05,17,02,15,8.20
2012,05,17,02,16,8.20
2012,05,17,02,17,8.20
2012,05,17,02,18,8.20
2012,05,17,02,19,8.10
2012,05,17,02,20,8.10
2012,05,17,02,21,8.10
2012,05,17,02,22,8.10
2012,05,17,02,23,8.10
2012,05,17,02,24,8.10
2012,05,17,02,25,8.10
2012,05,17,02,26,8.10
2012,05,17,02,27,8.10
2012,05,17,02,28,8.10
2012,05,17,02,29,8.10
2012,05,17,02,30,8.10
2012,05,17,02,31,8.00
2012,05,17,02,32,8.00
2012,05,17,02,33,8.00
2012,05,17,02,34,8.00
2012,05,17,02,35,8.00
2012,05,17,02,36,7.90
2012,05,17,02,37,7.90
2012,05,17,02,38,7.90
2012,05,17,02,39,7.90
2012,05,17,02,40,7.90
2012,05,17,02,41,7.90
2012,05,17,02,42,7.80
2012,05,17,02,43,7.80
2012,05,17,02,44,7.80
2012,05,17,02,45,7.80
2012,05,17,02,46,7.80
2012,05,17,02,47,7.80
2012,05,17,02,48,7.80
2012,05,17,02,49,7.70
2012,05,17,02,50,7.70
2012,05,17,02,51,7.70
2012,05,17,02,52,7.70
2012,05,17,02,53,7.60
2012,05,17,02,54,7.60
2012,05,17,02,55,7.60
2012,05,17,02,56,7.60
2012,05,17,02,57,7.60
2012,05,17,02,58,7.60
2012,05,17,02,59,7.50
2012,05,17,03,00,7.50
2012,05,17,03,01,7.50
2012,05,17,03,02,7.50
2012,05,17,03,03,7.50
2012,05,17,03,04,7.40
2012,05,17,03,05,7.40
2012,05,17,03,06,7.40
2012,05,17,03,07,7.40
2012,05,17,03,08,7.40
2012,05,17,03,09,7.30
2012,05,17,03,10,7.30
2012,05,17,03,11,7.30
2012,05,17,03,12,7.30
2012,05,17,03,13,7.30
2012,05,17,03,14,7.30
2012,05,17,03,15,7.30
2012,05,17,03,16,7.30
2012,05,17,03,17,7.30
2012,05,17,03,18,7.30
2012,05,17,03,19,7.30
2012,05,17,03,20,7.30
2012,05,17,03,21,7.30
2012,05,17,03,22,7.30
2012,05,17,03,23,7.30
2012,05,17,03,24,7.30
2012,05,17,03,25,7.30
2012,05,17,03,26,7.30
2012,05,17,03,27,7.30
2012,05,17,03,28,7.30
2012,05,17,03,29,7.30
2012,05,17,03,30,7.20
2012,05,17,03,31,7.20
2012,05,17,03,32,7.20
2012,05,17,03,33,7.20
2012,05,17,03,34,7.20
2012,05,17,03,35,7.10
2012,05,17,03,36,7.10
2012,05,17,03,37,7.10
2012,05,17,03,38,7.10
2012,05,17,03,39,7.10
2012,05,17,03,40,7.10
2012,05,17,03,41,7.10
2012,05,17,03,42,7.10
2012,05,17,03,43,7.00
2012,05,17,03,44,7.00
2012,05,17,03,45,7.00
2012,05,17,03,46,7.00
2012,05,17,03,47,7.00
2012,05,17,03,48,7.00
2012,05,17,03,49,7.00
2012,05,17,03,50,6.90
2012,05,17,03,51,6.90
2012,05,17,03,52,6.90
2012,05,17,03,53,6.90
2012,05,17,03,54,6.90
2012,05,17,03,55,6.90
2012,05,17,03,56,6.90
2012,05,17,03,57,6.90
2012,05,17,03,58,6.90
2012,05,17,03,59,6.80
2012,05,17,04,00,6.80
2012,05,17,04,01,6.80
2012,05,17,04,02,6.80
2012,05,17,04,03,6.80
2012,05,17,04,04,6.80
2012,05,17,04,05,6.80
2012,05,17,04,06,6.80
2012,05,17,04,07,6.80
2012,05,17,04,08,6.80
2012,05,17,04,09,6.80
2012,05,17,04,10,6.80
2012,05,17,04,11,6.80
2012,05,17,04,12,6.80
2012,05,17,04,13,6.80
2012,05,17,04,14,6.80
2012,05,17,04,15,6.80
2012,05,17,04,16,6.80
2012,05,17,04,17,6.80
2012,05,17,04,18,6.80
2012,05,17,04,19,6.80
2012,05,17,04,20,6.80
2012,05,17,04,21,6.70
2012,05,17,04,22,6.70
2012,05,17,04,23,6.70
2012,05,17,04,24,6.70
2012,05,17,04,25,6.60
2012,05,17,04,26,6.60
2012,05,17,04,27,6.60
2012,05,17,04,28,6.60
2012,05,17,04,29,6.60
2012,05,17,04,30,6.60
2012,05,17,04,31,6.60
2012,05,17,04,32,6.60
2012,05,17,04,33,6.60
2012,05,17,04,34,6.60
2012,05,17,04,35,6.60
2012,05,17,04,36,6.60
2012,05,17,04,37,6.50
2012,05,17,04,38,6.40
2012,05,17,04,39,6.40
2012,05,17,04,40,6.40
2012,05,17,04,41,6.40
2012,05,17,04,42,6.40
2012,05,17,04,43,6.40
2012,05,17,04,44,6.40
2012,05,17,04,45,6.40
2012,05,17,04,46,6.40
2012,05,17,04,47,6.40
2012,05,17,04,48,6.30
2012,05,17,04,49,6.30
2012,05,17,04,50,6.30
2012,05,17,04,51,6.30
2012,05,17,04,52,6.30
2012,05,17,04,53,6.30
2012,05,17,04,54,6.30
2012,05,17,04,55,6.30
2012,05,17,04,56,6.30
2012,05,17,04,57,6.30
2012,05,17,04,58,6.30
2012,05,17,04,59,6.30
2012,05,17,05,00,6.30
2012,05,17,05,01,6.30
2012,05,17,05,02,6.20
2012,05,17,05,03,6.20
2012,05,17,05,04,6.20
2012,05,17,05,05,6.20
2012,05,17,05,06,6.20
2012,05,17,05,07,6.20
2012,05,17,05,08,6.20
2012,05,17,05,09,6.20
2012,05,17,05,10,6.20
2012,05,17,05,11,6.20
2012,05,17,05,12,6.20
2012,05,17,05,13,6.20
2012,05,17,05,14,6.20
2012,05,17,05,15,6.20
2012,05,17,05,16,6.10
2012,05,17,05,17,6.10
2012,05,17,05,18,6.10
2012,05,17,05,19,6.10
2012,05,17,05,20,6.10
2012,05,17,05,21,6.10
2012,05,17,05,22,6.00
2012,05,17,05,23,6.00
2012,05,17,05,24,6.00
2012,05,17,05,25,6.00
2012,05,17,05,26,6.00
2012,05,17,05,27,6.00
2012,05,17,05,28,6.00
2012,05,17,05,29,6.00
2012,05,17,05,30,5.90
2012,05,17,05,31,5.90
2012,05,17,05,32,5.90
2012,05,17,05,33,5.90
2012,05,17,05,34,5.90
2012,05,17,05,35,5.90
2012,05,17,05,36,5.90
2012,05,17,05,37,5.90
2012,05,17,05,38,5.90
2012,05,17,05,39,5.90
2012,05,17,05,40,5.90
2012,05,17,05,41,5.90
2012,05,17,05,42,5.90
2012,05,17,05,43,5.90
2012,05,17,05,44,5.90
2012,05,17,05,45,5.90
2012,05,17,05,46,5.90
2012,05,17,05,47,5.90
2012,05,17,05,48,5.90
2012,05,17,05,49,5.90
2012,05,17,05,50,5.90
2012,05,17,05,51,5.90
2012,05,17,05,52,5.90
2012,05,17,05,53,5.90
2012,05,17,05,54,5.90
2012,05,17,05,55,5.90
2012,05,17,05,56,6.00
2012,05,17,05,57,6.00
2012,05,17,05,58,6.00
2012,05,17,05,59,6.00
2012,05,17,06,00,6.00
2012,05,17,06,01,6.00
2012,05,17,06,02,6.00
2012,05,17,06,03,6.10
2012,05,17,06,04,6.10
2012,05,17,06,05,6.10
2012,05,17,06,06,6.10
2012,05,17,06,07,6.10
2012,05,17,06,08,6.10
2012,05,17,06,09,6.10
2012,05,17,06,10,6.10
2012,05,17,06,11,6.20
2012,05,17,06,12,6.20
2012,05,17,06,13,6.20
2012,05,17,06,14,6.20
2012,05,17,06,15,6.20
2012,05,17,06,16,6.30
2012,05,17,06,17,6.30
2012,05,17,06,18,6.30
2012,05,17,06,19,6.30
2012,05,17,06,20,6.30
2012,05,17,06,21,6.40
2012,05,17,06,22,6.40
2012,05,17,06,23,6.40
2012,05,17,06,24,6.40
2012,05,17,06,25,6.60
2012,05,17,06,26,6.60
2012,05,17,06,27,6.60
2012,05,17,06,28,6.60
2012,05,17,06,29,6.70
2012,05,17,06,30,6.70
2012,05,17,06,31,6.70
2012,05,17,06,32,6.80
2012,05,17,06,33,6.80
2012,05,17,06,34,6.80
2012,05,17,06,35,6.80
2012,05,17,06,36,6.90
2012,05,17,06,37,6.90
2012,05,17,06,38,7.00
2012,05,17,06,39,7.00
2012,05,17,06,40,7.10
2012,05,17,06,41,7.20
2012,05,17,06,42,7.20
2012,05,17,06,43,7.30
2012,05,17,06,44,7.30
2012,05,17,06,45,7.30
2012,05,17,06,46,7.30
2012,05,17,06,47,7.40
2012,05,17,06,48,7.40
2012,05,17,06,49,7.50
2012,05,17,06,50,7.50
2012,05,17,06,51,7.60
2012,05,17,06,52,7.70
2012,05,17,06,53,7.70
2012,05,17,06,54,7.80
2012,05,17,06,55,7.80
2012,05,17,06,56,7.80
2012,05,17,06,57,7.90
2012,05,17,06,58,7.90
2012,05,17,06,59,8.00
2012,05,17,07,00,8.10
2012,05,17,07,01,8.20
2012,05,17,07,02,8.20
2012,05,17,07,03,8.30
2012,05,17,07,04,8.40
2012,05,17,07,05,8.40
2012,05,17,07,06,8.50
2012,05,17,07,07,8.60
2012,05,17,07,08,8.60
2012,05,17,07,09,8.70
2012,05,17,07,10,8.70
2012,05,17,07,11,8.80
2012,05,17,07,12,8.90
2012,05,17,07,13,9.00
2012,05,17,07,14,9.00
2012,05,17,07,15,9.10
2012,05,17,07,16,9.20
2012,05,17,07,17,9.20
2012,05,17,07,18,9.30
2012,05,17,07,19,9.30
2012,05,17,07,20,9.40
2012,05,17,07,21,9.50
2012,05,17,07,22,9.60
2012,05,17,07,23,9.60
2012,05,17,07,24,9.70
2012,05,17,07,25,9.80
2012,05,17,07,26,9.90
2012,05,17,07,27,10.00
2012,05,17,07,28,10.10
2012,05,17,07,29,10.20
2012,05,17,07,30,10.30
2012,05,17,07,31,10.40
2012,05,17,07,32,10.40
2012,05,17,07,33,10.60
2012,05,17,07,34,10.60
2012,05,17,07,35,10.70
2012,05,17,07,36,10.80
2012,05,17,07,37,10.80
2012,05,17,07,38,10.90
2012,05,17,07,39,10.90
2012,05,17,07,40,11.00
2012,05,17,07,41,11.10
2012,05,17,07,42,11.20
2012,05,17,07,43,11.20
2012,05,17,07,44,11.30
2012,05,17,07,45,11.40
2012,05,17,07,46,11.40
2012,05,17,07,47,11.50
2012,05,17,07,48,11.60
2012,05,17,07,49,11.60
2012,05,17,07,50,11.70
2012,05,17,07,51,11.70
2012,05,17,07,52,11.70
2012,05,17,07,53,11.80
2012,05,17,07,54,11.80
2012,05,17,07,55,11.80
2012,05,17,07,56,11.80
2012,05,17,07,57,11.80
2012,05,17,07,58,11.80
2012,05,17,07,59,11.80
2012,05,17,08,00,11.70
2012,05,17,08,01,11.60
2012,05,17,08,02,11.60
2012,05,17,08,03,11.60
2012,05,17,08,04,11.60
2012,05,17,08,05,11.60
2012,05,17,08,06,11.60
2012,05,17,08,07,11.60
2012,05,17,08,08,11.70
2012,05,17,08,09,11.70
2012,05,17,08,10,11.70
2012,05,17,08,11,11.70
2012,05,17,08,12,11.70
2012,05,17,08,13,11.70
2012,05,17,08,14,11.60
2012,05,17,08,15,11.60
2012,05,17,08,16,11.60
2012,05,17,08,17,11.60
2012,05,17,08,18,11.60
2012,05,17,08,19,11.70
2012,05,17,08,20,11.70
2012,05,17,08,21,11.80
2012,05,17,08,22,11.80
2012,05,17,08,23,11.80
2012,05,17,08,24,11.80
2012,05,17,08,25,11.80
2012,05,17,08,26,11.80
2012,05,17,08,27,11.80
2012,05,17,08,28,11.70
2012,05,17,08,29,11.70
2012,05,17,08,30,11.60
2012,05,17,08,31,11.60
2012,05,17,08,32,11.50
2012,05,17,08,33,11.40
2012,05,17,08,34,11.40
2012,05,17,08,35,11.40
2012,05,17,08,36,11.40
2012,05,17,08,37,11.40
2012,05,17,08,38,11.30
2012,05,17,08,39,11.20
2012,05,17,08,40,11.20
2012,05,17,08,41,11.20
2012,05,17,08,42,11.10
2012,05,17,08,43,11.10
2012,05,17,08,44,11.10
2012,05,17,08,45,11.10
2012,05,17,08,46,11.10
2012,05,17,08,47,11.10
2012,05,17,08,48,11.10
2012,05,17,08,49,11.10
2012,05,17,08,50,11.10
2012,05,17,08,51,11.20
2012,05,17,08,52,11.30
2012,05,17,08,53,11.30
2012,05,17,08,54,11.30
2012,05,17,08,55,11.30
2012,05,17,08,56,11.30
2012,05,17,08,57,11.30
2012,05,17,08,58,11.20
2012,05,17,08,59,11.20
2012,05,17,09,00,11.20
2012,05,17,09,01,11.20
2012,05,17,09,02,11.20
2012,05,17,09,03,11.30
2012,05,17,09,04,11.30
2012,05,17,09,05,11.30
2012,05,17,09,06,11.40
2012,05,17,09,07,11.40
2012,05,17,09,08,11.40
2012,05,17,09,09,11.40
2012,05,17,09,10,11.30
2012,05,17,09,11,11.20
2012,05,17,09,12,11.20
2012,05,17,09,13,11.10
2012,05,17,09,14,11.10
2012,05,17,09,15,11.10
2012,05,17,09,16,11.10
2012,05,17,09,17,11.10
2012,05,17,09,18,11.10
2012,05,17,09,19,11.20
2012,05,17,09,20,11.20
2012,05,17,09,21,11.20
2012,05,17,09,22,11.20
2012,05,17,09,23,11.20
2012,05,17,09,24,11.20
2012,05,17,09,25,11.20
2012,05,17,09,26,11.20
2012,05,17,09,27,11.20
2012,05,17,09,28,11.20
2012,05,17,09,29,11.30
2012,05,17,09,30,11.30
2012,05,17,09,31,11.40
2012,05,17,09,32,11.40
2012,05,17,09,33,11.40
2012,05,17,09,34,11.40
2012,05,17,09,35,11.40
2012,05,17,09,36,11.50
2012,05,17,09,37,11.40
2012,05,17,09,38,11.40
2012,05,17,09,39,11.40
2012,05,17,09,40,11.50
2012,05,17,09,41,11.50
2012,05,17,09,42,11.50
2012,05,17,09,43,11.40
2012,05,17,09,44,11.40
2012,05,17,09,45,11.30
2012,05,17,09,46,11.20
2012,05,17,09,47,11.30
2012,05,17,09,48,11.30
2012,05,17,09,49,11.30
2012,05,17,09,50,11.30
2012,05,17,09,51,11.30
2012,05,17,09,52,11.20
2012,05,17,09,53,11.20
2012,05,17,09,54,11.10
2012,05,17,09,55,11.10
2012,05,17,09,56,11.10
2012,05,17,09,57,11.10
2012,05,17,09,58,11.10
2012,05,17,09,59,11.20
2012,05,17,10,00,11.20
2012,05,17,10,01,11.20
2012,05,17,10,02,11.20
2012,05,17,10,03,11.30
2012,05,17,10,04,11.40
2012,05,17,10,05,11.40
2012,05,17,10,06,11.30
2012,05,17,10,07,11.30
2012,05,17,10,08,11.50
2012,05,17,10,09,11.60
2012,05,17,10,10,11.60
2012,05,17,10,11,11.60
2012,05,17,10,12,11.60
2012,05,17,10,13,11.60
2012,05,17,10,14,11.60
2012,05,17,10,15,11.70
2012,05,17,10,16,11.70
2012,05,17,10,17,11.80
2012,05,17,10,18,12.00
2012,05,17,10,19,12.10
2012,05,17,10,20,12.20
2012,05,17,10,21,12.20
2012,05,17,10,22,12.30
2012,05,17,10,23,12.30
2012,05,17,10,24,12.30
2012,05,17,10,25,12.30
2012,05,17,10,26,12.40
2012,05,17,10,27,12.40
2012,05,17,10,28,12.50
2012,05,17,10,29,12.40
2012,05,17,10,30,12.40
2012,05,17,10,31,12.40
2012,05,17,10,32,12.40
2012,05,17,10,33,12.40
2012,05,17,10,34,12.40
2012,05,17,10,35,12.40
2012,05,17,10,36,12.30
2012,05,17,10,37,12.30
2012,05,17,10,38,12.30
2012,05,17,10,39,12.30
2012,05,17,10,40,12.50
2012,05,17,10,41,12.60
2012,05,17,10,42,12.70
2012,05,17,10,43,12.80
2012,05,17,10,44,12.80
2012,05,17,10,45,12.60
2012,05,17,10,46,12.50
2012,05,17,10,47,12.50
2012,05,17,10,48,12.60
2012,05,17,10,49,12.70
2012,05,17,10,50,12.70
2012,05,17,10,51,12.40
2012,05,17,10,52,12.30
2012,05,17,10,53,12.20
2012,05,17,10,54,12.00
2012,05,17,10,55,11.90
2012,05,17,10,56,12.00
2012,05,17,10,57,12.10
2012,05,17,10,58,12.20
2012,05,17,10,59,12.20
2012,05,17,11,00,12.20
2012,05,17,11,01,12.20
2012,05,17,11,02,12.20
2012,05,17,11,03,12.20
2012,05,17,11,04,12.30
2012,05,17,11,05,12.30
2012,05,17,11,06,12.40
2012,05,17,11,07,12.40
2012,05,17,11,08,12.30
2012,05,17,11,09,12.30
2012,05,17,11,10,12.30
2012,05,17,11,11,12.20
2012,05,17,11,12,12.20
2012,05,17,11,13,12.10
2012,05,17,11,14,12.10
2012,05,17,11,15,12.20
2012,05,17,11,16,12.30
2012,05,17,11,17,12.40
2012,05,17,11,18,12.50
2012,05,17,11,19,12.40
2012,05,17,11,20,12.30
2012,05,17,11,21,12.30
2012,05,17,11,22,12.40
2012,05,17,11,23,12.60
2012,05,17,11,24,12.70
2012,05,17,11,25,12.70
2012,05,17,11,26,12.70
2012,05,17,11,27,12.80
2012,05,17,11,28,12.70
2012,05,17,11,29,12.70
2012,05,17,11,30,12.70
2012,05,17,11,31,12.80
2012,05,17,11,32,12.90
2012,05,17,11,33,13.00
2012,05,17,11,34,13.00
2012,05,17,11,35,13.00
2012,05,17,11,36,13.00
2012,05,17,11,37,12.90
2012,05,17,11,38,12.90
2012,05,17,11,39,12.80
2012,05,17,11,40,12.80
2012,05,17,11,41,12.80
2012,05,17,11,42,12.80
2012,05,17,11,43,12.80
2012,05,17,11,44,12.80
2012,05,17,11,45,12.90
2012,05,17,11,46,13.00
2012,05,17,11,47,13.00
2012,05,17,11,48,13.00
2012,05,17,11,49,12.90
2012,05,17,11,50,12.70
2012,05,17,11,51,12.70
2012,05,17,11,52,12.70
2012,05,17,11,53,12.70
2012,05,17,11,54,12.70
2012,05,17,11,55,12.80
2012,05,17,11,56,12.70
2012,05,17,11,57,12.70
2012,05,17,11,58,12.80
2012,05,17,11,59,12.90
2012,05,17,12,00,13.00
2012,05,17,12,01,13.00
2012,05,17,12,02,13.00
2012,05,17,12,03,13.10
2012,05,17,12,04,13.10
2012,05,17,12,05,13.10
2012,05,17,12,06,13.00
2012,05,17,12,07,13.00
2012,05,17,12,08,13.00
2012,05,17,12,09,13.10
2012,05,17,12,10,13.10
2012,05,17,12,11,13.10
2012,05,17,12,12,13.00
2012,05,17,12,13,12.90
2012,05,17,12,14,13.00
2012,05,17,12,15,13.10
2012,05,17,12,16,13.10
2012,05,17,12,17,13.00
2012,05,17,12,18,12.90
2012,05,17,12,19,12.90
2012,05,17,12,20,12.80
2012,05,17,12,21,12.90
2012,05,17,12,22,13.00
2012,05,17,12,23,13.10
2012,05,17,12,24,13.20
2012,05,17,12,25,13.30
2012,05,17,12,26,13.40
2012,05,17,12,27,13.40
2012,05,17,12,28,13.40
2012,05,17,12,29,13.40
2012,05,17,12,30,13.30
2012,05,17,12,31,13.30
2012,05,17,12,32,13.20
2012,05,17,12,33,13.20
2012,05,17,12,34,13.30
2012,05,17,12,35,13.40
2012,05,17,12,36,13.60
2012,05,17,12,37,13.50
2012,05,17,12,38,13.50
2012,05,17,12,39,13.50
2012,05,17,12,40,13.40
2012,05,17,12,41,13.50
2012,05,17,12,42,13.50
2012,05,17,12,43,13.50
2012,05,17,12,44,13.60
2012,05,17,12,45,13.60
2012,05,17,12,46,13.50
2012,05,17,12,47,13.50
2012,05,17,12,48,13.50
2012,05,17,12,49,13.50
2012,05,17,12,50,13.60
2012,05,17,12,51,13.70
2012,05,17,12,52,13.90
2012,05,17,12,53,13.90
2012,05,17,12,54,13.90
2012,05,17,12,55,13.80
2012,05,17,12,56,13.80
2012,05,17,12,57,13.90
2012,05,17,12,58,13.80
2012,05,17,12,59,13.90
2012,05,17,13,00,14.00
2012,05,17,13,01,14.10
2012,05,17,13,02,14.00
2012,05,17,13,03,13.90
2012,05,17,13,04,13.80
2012,05,17,13,05,13.70
2012,05,17,13,06,13.70
2012,05,17,13,07,13.70
2012,05,17,13,08,13.70
2012,05,17,13,09,13.80
2012,05,17,13,10,13.80
2012,05,17,13,11,13.90
2012,05,17,13,12,13.80
2012,05,17,13,13,13.90
2012,05,17,13,14,14.00
2012,05,17,13,15,14.00
2012,05,17,13,16,14.00
2012,05,17,13,17,14.10
2012,05,17,13,18,14.00
2012,05,17,13,19,14.10
2012,05,17,13,20,14.10
2012,05,17,13,21,14.20
2012,05,17,13,22,14.20
2012,05,17,13,23,14.10
2012,05,17,13,24,14.10
2012,05,17,13,25,14.20
2012,05,17,13,26,14.20
2012,05,17,13,27,14.40
2012,05,17,13,28,14.50
2012,05,17,13,29,14.60
2012,05,17,13,30,14.60
2012,05,17,13,31,14.50
2012,05,17,13,32,14.40
2012,05,17,13,33,14.40
2012,05,17,13,34,14.40
2012,05,17,13,35,14.50
2012,05,17,13,36,14.50
2012,05,17,13,37,14.50
2012,05,17,13,38,14.60
2012,05,17,13,39,14.60
2012,05,17,13,40,14.40
2012,05,17,13,41,14.30
2012,05,17,13,42,14.20
2012,05,17,13,43,14.10
2012,05,17,13,44,14.00
2012,05,17,13,45,13.90
2012,05,17,13,46,14.00
2012,05,17,13,47,14.10
2012,05,17,13,48,14.10
2012,05,17,13,49,14.10
2012,05,17,13,50,14.30
2012,05,17,13,51,14.40
2012,05,17,13,52,14.40
2012,05,17,13,53,14.40
2012,05,17,13,54,14.50
2012,05,17,13,55,14.60
2012,05,17,13,56,14.60
2012,05,17,13,57,14.60
2012,05,17,13,58,14.60
2012,05,17,13,59,14.30
2012,05,17,14,00,14.20
2012,05,17,14,01,14.40
2012,05,17,14,02,14.50
2012,05,17,14,03,14.60
2012,05,17,14,04,14.70
2012,05,17,14,05,14.60
2012,05,17,14,06,14.50
2012,05,17,14,07,14.40
2012,05,17,14,08,14.40
2012,05,17,14,09,14.40
2012,05,17,14,10,14.30
2012,05,17,14,11,14.30
2012,05,17,14,12,14.20
2012,05,17,14,13,14.20
2012,05,17,14,14,14.10
2012,05,17,14,15,14.10
2012,05,17,14,16,14.20
2012,05,17,14,17,14.30
2012,05,17,14,18,14.30
2012,05,17,14,19,14.40
2012,05,17,14,20,14.40
2012,05,17,14,21,14.40
2012,05,17,14,22,14.40
2012,05,17,14,23,14.40
2012,05,17,14,24,14.20
2012,05,17,14,25,14.40
2012,05,17,14,26,14.40
2012,05,17,14,27,14.40
2012,05,17,14,28,14.50
2012,05,17,14,29,14.60
2012,05,17,14,30,14.70
2012,05,17,14,31,14.80
2012,05,17,14,32,14.80
2012,05,17,14,33,14.80
2012,05,17,14,34,14.70
2012,05,17,14,35,14.60
2012,05,17,14,36,14.60
2012,05,17,14,37,14.60
2012,05,17,14,38,14.70
2012,05,17,14,39,14.60
2012,05,17,14,40,14.70
2012,05,17,14,41,14.70
2012,05,17,14,42,14.60
2012,05,17,14,43,14.40
2012,05,17,14,44,14.30
2012,05,17,14,45,14.40
2012,05,17,14,46,14.40
2012,05,17,14,47,14.40
2012,05,17,14,48,14.40
2012,05,17,14,49,14.30
2012,05,17,14,50,14.40
2012,05,17,14,51,14.50
2012,05,17,14,52,14.60
2012,05,17,14,53,14.60
2012,05,17,14,54,14.50
2012,05,17,14,55,14.40
2012,05,17,14,56,14.30
2012,05,17,14,57,14.30
2012,05,17,14,58,14.30
2012,05,17,14,59,14.40
2012,05,17,15,00,14.40
2012,05,17,15,01,14.50
2012,05,17,15,02,14.50
2012,05,17,15,03,14.50
2012,05,17,15,04,14.50
2012,05,17,15,05,14.50
2012,05,17,15,06,14.60
2012,05,17,15,07,14.70
2012,05,17,15,08,14.70
2012,05,17,15,09,14.70
2012,05,17,15,10,14.70
2012,05,17,15,11,14.70
2012,05,17,15,12,14.80
2012,05,17,15,13,14.80
2012,05,17,15,14,14.80
2012,05,17,15,15,14.70
2012,05,17,15,16,14.60
2012,05,17,15,17,14.70
2012,05,17,15,18,14.80
2012,05,17,15,19,14.80
2012,05,17,15,20,14.90
2012,05,17,15,21,14.90
2012,05,17,15,22,15.00
2012,05,17,15,23,15.00
2012,05,17,15,24,15.10
2012,05,17,15,25,15.30
2012,05,17,15,26,15.30
2012,05,17,15,27,15.40
2012,05,17,15,28,15.40
2012,05,17,15,29,15.40
2012,05,17,15,30,15.40
2012,05,17,15,31,15.30
2012,05,17,15,32,15.20
2012,05,17,15,33,15.20
2012,05,17,15,34,15.20
2012,05,17,15,35,15.10
2012,05,17,15,36,15.20
2012,05,17,15,37,15.20
2012,05,17,15,38,15.30
2012,05,17,15,39,15.30
2012,05,17,15,40,15.30
2012,05,17,15,41,15.30
2012,05,17,15,42,15.30
2012,05,17,15,43,15.50
2012,05,17,15,44,15.50
2012,05,17,15,45,15.50
2012,05,17,15,46,15.50
2012,05,17,15,47,15.50
2012,05,17,15,48,15.40
2012,05,17,15,49,15.40
2012,05,17,15,50,15.30
2012,05,17,15,51,15.30
2012,05,17,15,52,15.30
2012,05,17,15,53,15.20
2012,05,17,15,54,15.10
2012,05,17,15,55,15.10
2012,05,17,15,56,15.00
2012,05,17,15,57,14.80
2012,05,17,15,58,14.80
2012,05,17,15,59,14.80
2012,05,17,16,00,14.80
2012,05,17,16,01,14.80
2012,05,17,16,02,14.80
2012,05,17,16,03,14.80
2012,05,17,16,04,14.70
2012,05,17,16,05,14.60
2012,05,17,16,06,14.60
2012,05,17,16,07,14.70
2012,05,17,16,08,14.80
2012,05,17,16,09,14.90
2012,05,17,16,10,14.90
2012,05,17,16,11,14.90
2012,05,17,16,12,14.90
2012,05,17,16,13,14.70
2012,05,17,16,14,14.50
2012,05,17,16,15,14.50
2012,05,17,16,16,14.40
2012,05,17,16,17,14.30
2012,05,17,16,18,14.30
2012,05,17,16,19,14.30
2012,05,17,16,20,14.40
2012,05,17,16,21,14.40
2012,05,17,16,22,14.40
2012,05,17,16,23,14.40
2012,05,17,16,24,14.20
2012,05,17,16,25,14.20
2012,05,17,16,26,14.20
2012,05,17,16,27,14.20
2012,05,17,16,28,14.20
2012,05,17,16,29,14.20
2012,05,17,16,30,14.20
2012,05,17,16,31,14.20
2012,05,17,16,32,14.20
2012,05,17,16,33,14.20
2012,05,17,16,34,14.20
2012,05,17,16,35,14.20
2012,05,17,16,36,14.20
2012,05,17,16,37,14.20
2012,05,17,16,38,14.20
2012,05,17,16,39,14.10
2012,05,17,16,40,14.10
2012,05,17,16,41,14.10
2012,05,17,16,42,14.10
2012,05,17,16,43,14.00
2012,05,17,16,44,14.00
2012,05,17,16,45,13.90
2012,05,17,16,46,13.80
2012,05,17,16,47,13.80
2012,05,17,16,48,13.80
2012,05,17,16,49,13.80
2012,05,17,16,50,13.90
2012,05,17,16,51,13.90
2012,05,17,16,52,13.80
2012,05,17,16,53,13.80
2012,05,17,16,54,13.70
2012,05,17,16,55,13.60
2012,05,17,16,56,13.60
2012,05,17,16,57,13.50
2012,05,17,16,58,13.50
2012,05,17,16,59,13.40
2012,05,17,17,00,13.40
2012,05,17,17,01,13.30
2012,05,17,17,02,13.30
2012,05,17,17,03,13.30
2012,05,17,17,04,13.30
2012,05,17,17,05,13.30
2012,05,17,17,06,13.30
2012,05,17,17,07,13.30
2012,05,17,17,08,13.30
2012,05,17,17,09,13.40
2012,05,17,17,10,13.50
2012,05,17,17,11,13.60
2012,05,17,17,12,13.70
2012,05,17,17,13,13.70
2012,05,17,17,14,13.70
2012,05,17,17,15,13.70
2012,05,17,17,16,13.70
2012,05,17,17,17,13.70
2012,05,17,17,18,13.70
2012,05,17,17,19,13.70
2012,05,17,17,20,13.70
2012,05,17,17,21,13.80
2012,05,17,17,22,13.90
2012,05,17,17,23,13.90
2012,05,17,17,24,13.90
2012,05,17,17,25,14.00
2012,05,17,17,26,14.00
2012,05,17,17,27,14.00
2012,05,17,17,28,13.90
2012,05,17,17,29,13.90
2012,05,17,17,30,13.90
2012,05,17,17,31,13.90
2012,05,17,17,32,14.00
2012,05,17,17,33,14.00
2012,05,17,17,34,13.90
2012,05,17,17,35,13.80
2012,05,17,17,36,13.70
2012,05,17,17,37,13.60